When you browse on this site, cookies collect data to enhance your experience and personalize the content and advertising you see.
Visit our Privacy Policy to learn more. By continuing to use the site, you agree to this use of cookies and data.
  • In United Kingdom
  • List of Countries
  • For 7 days
  • Water Temperature
  • Weather Map
  • Weather Widgets
  • user-avatar
    Login

    Hourly Weather Comayagua

    Today, 26 August, Monday

    Time Temperature Precipitation Wind Pressure Humidity
    00:00 +21°C° 0 mm 0 mps 708 mmHg 93%
    01:00 +21°C° 0 mm 0 mps 707 mmHg 94%
    02:00 +21°C° 0 mm 0 mps 707 mmHg 94%
    03:00 +20°C° 0 mm 0 mps 707 mmHg 95%
    04:00 +22°C° 0 mm 1 mps 707 mmHg 95%
    05:00 +22°C° 0 mm 1 mps 707 mmHg 96%
    06:00 +22°C° 0 mm 1 mps 707 mmHg 96%
    07:00 +25°C° 0 mm 1 mps 707 mmHg 85%
    08:00 +27°C° 0 mm 1 mps 708 mmHg 75%
    09:00 +30°C° 0 mm 1 mps 708 mmHg 64%
    10:00 +31°C° 0 mm 2 mps 708 mmHg 55%
    11:00 +34°C° 0 mm 2 mps 708 mmHg 46%
    12:00 +36°C° 0 mm 2 mps 708 mmHg 37%
    13:00 +36°C° 0 mm 2 mps 707 mmHg 37%
    14:00 +36°C° 0 mm 2 mps 707 mmHg 37%
    15:00 +36°C° 0 mm 2 mps 706 mmHg 36%
    16:00 +34°C° 0 mm 2 mps 706 mmHg 46%
    17:00 +31°C° 0 mm 2 mps 706 mmHg 56%
    18:00 +28°C° 0 mm 1 mps 706 mmHg 65%
    19:00 +27°C° 0 mm 1 mps 707 mmHg 71%
    20:00 +26°C° 0 mm 1 mps 707 mmHg 76%
    21:00 +23°C° 0 mm 0 mps 708 mmHg 81%
    22:00 +22°C° 0 mm 0 mps 708 mmHg 84%
    23:00 +24°C° 0 mm 1 mps 707 mmHg 87%

    Tomorrow, 27 August, Tuesday

    Time Temperature Precipitation Wind Pressure Humidity
    00:00 +23°C° 0 mm 1 mps 707 mmHg 90%
    01:00 +23°C° 0 mm 1 mps 707 mmHg 92%
    02:00 +22°C° 0 mm 1 mps 707 mmHg 93%
    03:00 +22°C° 0 mm 1 mps 707 mmHg 95%
    04:00 +22°C° 0 mm 1 mps 707 mmHg 96%
    05:00 +22°C° 0 mm 1 mps 707 mmHg 96%
    06:00 +22°C° 0 mm 1 mps 707 mmHg 96%
    07:00 +25°C° 0 mm 1 mps 707 mmHg 85%
    08:00 +27°C° 0 mm 1 mps 708 mmHg 73%
    09:00 +30°C° 0 mm 1 mps 709 mmHg 61%
    10:00 +31°C° 0 mm 2 mps 708 mmHg 56%
    11:00 +32°C° 0 mm 2 mps 708 mmHg 51%
    12:00 +35°C° 0 mm 2 mps 708 mmHg 47%
    13:00 +34°C° 0.5 mm 2 mps 707 mmHg 50%
    14:00 +32°C° 0.5 mm 2 mps 707 mmHg 53%
    15:00 +32°C° 0.5 mm 2 mps 706 mmHg 56%
    16:00 +30°C° 0.6 mm 2 mps 706 mmHg 63%
    17:00 +28°C° 0.6 mm 1 mps 706 mmHg 70%
    18:00 +27°C° 0.6 mm 1 mps 707 mmHg 77%
    19:00 +26°C° 0 mm 1 mps 707 mmHg 80%
    20:00 +25°C° 0 mm 1 mps 707 mmHg 83%
    21:00 +23°C° 0 mm 1 mps 708 mmHg 87%
    22:00 +23°C° 0 mm 1 mps 708 mmHg 89%
    23:00 +23°C° 0 mm 1 mps 708 mmHg 91%

    Day after tomorrow, 28 August, Wednesday

    Time Temperature Precipitation Wind Pressure Humidity
    00:00 +22°C° 0 mm 1 mps 708 mmHg 93%
    01:00 +22°C° 0 mm 1 mps 707 mmHg 94%
    02:00 +22°C° 0 mm 1 mps 707 mmHg 95%
    03:00 +22°C° 0 mm 1 mps 707 mmHg 96%
    04:00 +22°C° 0 mm 1 mps 707 mmHg 96%
    05:00 +22°C° 0 mm 1 mps 708 mmHg 96%
    06:00 +22°C° 0 mm 1 mps 708 mmHg 95%
    07:00 +24°C° 0 mm 1 mps 708 mmHg 83%
    08:00 +27°C° 0 mm 1 mps 709 mmHg 71%
    09:00 +29°C° 0 mm 2 mps 710 mmHg 58%
    10:00 +31°C° 0 mm 2 mps 710 mmHg 52%
    11:00 +32°C° 0 mm 2 mps 709 mmHg 46%
    12:00 +34°C° 0 mm 2 mps 709 mmHg 40%
    13:00 +32°C° 0 mm 2 mps 709 mmHg 41%
    14:00 +31°C° 0 mm 3 mps 708 mmHg 42%
    15:00 +30°C° 0 mm 3 mps 707 mmHg 43%
    16:00 +29°C° 0 mm 2 mps 707 mmHg 50%
    17:00 +27°C° 0 mm 1 mps 707 mmHg 57%
    18:00 +25°C° 0 mm 1 mps 707 mmHg 64%
    19:00 +25°C° 0 mm 1 mps 708 mmHg 66%
    20:00 +24°C° 0 mm 1 mps 708 mmHg 68%
    21:00 +24°C° 0 mm 1 mps 709 mmHg 70%
    22:00 +23°C° 0 mm 1 mps 708 mmHg 74%
    23:00 +22°C° 0 mm 1 mps 708 mmHg 78%

    29 August, Thursday

    Time Temperature Precipitation Wind Pressure Humidity
    00:00 +22°C° 0 mm 1 mps 708 mmHg 82%
    01:00 +21°C° 0 mm 1 mps 708 mmHg 85%
    02:00 +21°C° 0 mm 1 mps 708 mmHg 88%
    03:00 +21°C° 0 mm 1 mps 708 mmHg 91%
    04:00 +21°C° 0 mm 1 mps 708 mmHg 92%
    05:00 +21°C° 0 mm 1 mps 708 mmHg 93%
    06:00 +21°C° 0 mm 1 mps 708 mmHg 94%
    07:00 +24°C° 0 mm 1 mps 708 mmHg 80%
    08:00 +27°C° 0 mm 1 mps 709 mmHg 65%
    09:00 +30°C° 0 mm 2 mps 710 mmHg 51%
    10:00 +31°C° 0 mm 2 mps 709 mmHg 45%
    11:00 +32°C° 0 mm 2 mps 709 mmHg 38%
    12:00 +35°C° 0 mm 2 mps 709 mmHg 32%
    13:00 +35°C° 0 mm 2 mps 708 mmHg 33%
    14:00 +35°C° 0 mm 3 mps 708 mmHg 34%
    15:00 +35°C° 0 mm 3 mps 707 mmHg 34%
    16:00 +33°C° 0 mm 3 mps 707 mmHg 45%
    17:00 +29°C° 0 mm 2 mps 707 mmHg 56%
    18:00 +27°C° 0 mm 2 mps 707 mmHg 66%
    19:00 +26°C° 0.2 mm 2 mps 708 mmHg 74%
    20:00 +25°C° 0.2 mm 1 mps 708 mmHg 81%
    21:00 +24°C° 0.2 mm 1 mps 709 mmHg 88%
    22:00 +23°C° 0.2 mm 1 mps 709 mmHg 90%
    23:00 +23°C° 0.2 mm 1 mps 709 mmHg 92%

    30 August, Friday

    Time Temperature Precipitation Wind Pressure Humidity
    00:00 +23°C° 0.2 mm 1 mps 708 mmHg 94%
    01:00 +20°C° 0.1 mm 0 mps 708 mmHg 94%
    02:00 +20°C° 0.1 mm 0 mps 708 mmHg 94%
    03:00 +20°C° 0.1 mm 0 mps 707 mmHg 94%
    04:00 +20°C° 0 mm 0 mps 707 mmHg 94%
    05:00 +19°C° 0 mm 0 mps 708 mmHg 94%
    06:00 +19°C° 0 mm 0 mps 708 mmHg 94%
    07:00 +22°C° 0 mm 0 mps 708 mmHg 83%
    08:00 +26°C° 0 mm 1 mps 709 mmHg 72%
    09:00 +29°C° 0 mm 1 mps 709 mmHg 61%
    10:00 +30°C° 0 mm 1 mps 709 mmHg 53%
    11:00 +32°C° 0 mm 2 mps 709 mmHg 45%
    12:00 +35°C° 0 mm 2 mps 708 mmHg 37%
    13:00 +35°C° 0 mm 2 mps 708 mmHg 37%
    14:00 +35°C° 0 mm 2 mps 707 mmHg 38%
    15:00 +35°C° 0 mm 2 mps 706 mmHg 39%
    16:00 +31°C° 0.1 mm 2 mps 706 mmHg 51%
    17:00 +29°C° 0.1 mm 2 mps 706 mmHg 63%
    18:00 +27°C° 0.1 mm 1 mps 707 mmHg 75%
    19:00 +26°C° 0.4 mm 1 mps 707 mmHg 79%
    20:00 +25°C° 0.4 mm 1 mps 708 mmHg 84%
    21:00 +24°C° 0.4 mm 1 mps 708 mmHg 89%
    22:00 +24°C° 0.1 mm 1 mps 708 mmHg 90%
    23:00 +24°C° 0.1 mm 1 mps 708 mmHg 90%

    31 August, Saturday

    Time Temperature Precipitation Wind Pressure Humidity
    00:00 +23°C° 0.1 mm 1 mps 708 mmHg 91%
    01:00 +21°C° 0 mm 0 mps 708 mmHg 91%
    02:00 +21°C° 0 mm 0 mps 707 mmHg 91%
    03:00 +20°C° 0 mm 0 mps 707 mmHg 92%
    04:00 +20°C° 0 mm 0 mps 707 mmHg 92%
    05:00 +20°C° 0 mm 0 mps 707 mmHg 92%
    06:00 +20°C° 0 mm 0 mps 708 mmHg 92%
    07:00 +23°C° 0 mm 0 mps 708 mmHg 80%
    08:00 +26°C° 0 mm 0 mps 709 mmHg 69%
    09:00 +29°C° 0 mm 0 mps 709 mmHg 58%
    10:00 +30°C° 0 mm 0 mps 709 mmHg 52%
    11:00 +33°C° 0 mm 1 mps 709 mmHg 47%
    12:00 +34°C° 0 mm 1 mps 708 mmHg 42%
    13:00 +34°C° 0.2 mm 1 mps 708 mmHg 46%
    14:00 +33°C° 0.2 mm 1 mps 707 mmHg 50%
    15:00 +32°C° 0.2 mm 1 mps 706 mmHg 53%
    16:00 +30°C° 1.9 mm 1 mps 706 mmHg 64%
    17:00 +28°C° 1.9 mm 1 mps 706 mmHg 75%
    18:00 +26°C° 1.9 mm 1 mps 706 mmHg 86%
    19:00 +25°C° 1.6 mm 1 mps 707 mmHg 88%
    20:00 +25°C° 1.6 mm 1 mps 707 mmHg 89%
    21:00 +24°C° 1.6 mm 1 mps 708 mmHg 90%
    22:00 +22°C° 1 mm 0 mps 708 mmHg 91%
    23:00 +22°C° 1 mm 0 mps 708 mmHg 92%
    Show more